Simultaneous Nadir Overpasses (SNOs) Predictions

Prediction of SNOs between GOES-15 and TERRA Satellite Orbit:

Table of predicted SNOs for the next 14.0 days since TLE Epoch: 1/4/2020
Index Date Time (GOES-15) GOES-15 Lat,Lon TERRA Lat,Lon Distance(km) Time Diff (sec)
1 01/04/2020 07:05:40 0.03,-128.35 -0.01,-128.58 25.67 80
2 01/06/2020 06:50:48 0.04,-128.38 0.60,-125.62 313.43 80
3 01/06/2020 19:14:44 -0.03,-128.35 0.47,-130.78 275.83 80
4 01/08/2020 18:59:52 -0.03,-128.37 -0.14,-127.82 62.29 80
5 01/10/2020 18:47:41 -0.03,-128.38 -0.80,-124.87 399.66 80
6 01/11/2020 07:11:45 0.02,-128.42 -0.31,-130.06 186.45 80
7 01/13/2020 06:56:53 0.02,-128.42 0.30,-127.10 150.31 80
8 01/13/2020 19:20:48 -0.01,-128.39 0.83,-132.25 439.54 80
9 01/15/2020 06:44:41 0.02,-128.42 0.91,-124.14 486.81 80
10 01/15/2020 19:08:37 -0.01,-128.39 0.16,-129.30 103.16 80
11 01/17/2020 18:53:45 -0.01,-128.38 -0.45,-126.34 232.92 80




NCC Satellite Simultaneous Nadir Overpasses (SNOs) Prediction Service
